GW0172 Weather Reports


Display with metric or nautical units.
time (UTC)temp
F
wind
direction
speed
MPH
gust
MPH
rain 1hr
in
rain 24hr
in
rain mn
in
humidity
%
barometer
mb
20220529123335 66 160 3.0 8.0 0.00 0.00 0.00 86 1002.0
20220529122834 66 135 5.0 6.0 0.00 0.00 0.00 86 1002.1
20220529122332 66 135 5.0 6.0 0.00 0.00 0.00 86 1002.1
20220529121831 66 152 5.0 7.0 0.00 0.00 0.00 86 1001.8
20220529121329 65 148 6.0 9.0 0.00 0.00 0.00 86 1001.7
20220529120828 65 147 5.0 5.0 0.00 0.00 0.00 87 1002.2
20220529120326 65 114 4.0 5.0 0.00 0.00 0.00 87 1001.8
20220529115827 65 155 5.0 7.0 0.00 0.00 0.00 87 1002.1
20220529115325 65 154 4.0 10.0 0.00 0.00 0.00 87 1002.2
20220529114824 65 135 3.0 9.0 0.00 0.00 0.00 87 1002.1
20220529114324 65 134 5.0 9.0 0.00 0.00 0.00 87 1001.8
20220529113823 65 147 5.0 10.0 0.00 0.00 0.00 87 1001.6
20220529113321 65 147 5.0 9.0 0.00 0.00 0.00 86 1001.1
20220529112820 65 131 5.0 6.0 0.00 0.00 0.00 87 1001.1
20220529112319 65 121 5.0 7.0 0.00 0.00 0.00 87 1001.2
20220529111817 65 154 3.0 9.0 0.00 0.00 0.00 87 1001.4
20220529111316 65 148 5.0 10.0 0.00 0.00 0.00 87 1001.1
20220529110814 65 168 5.0 13.0 0.00 0.00 0.00 87 1001.0
20220529110313 64 126 7.0 8.0 0.00 0.00 0.00 87 1000.9
20220529105813 64 135 4.0 7.0 0.00 0.00 0.00 88 1000.9
20220529105314 64 141 3.0 8.0 0.00 0.00 0.00 88 1000.9
20220529104812 64 121 3.0 5.0 0.00 0.00 0.00 88 1001.1
20220529104311 64 130 3.0 6.0 0.00 0.00 0.00 88 1001.2
20220529103809 64 134 4.0 7.0 0.00 0.00 0.00 87 1001.1
20220529103307 64 149 4.0 6.0 0.00 0.00 0.00 87 1000.7
20220529102808 64 134 8.0 8.0 0.00 0.00 0.00 87 1000.8
20220529102307 64 123 4.0 8.0 0.00 0.00 0.00 87 1000.9
20220529101805 64 149 3.0 9.0 0.00 0.00 0.00 88 1000.9
20220529101305 64 140 6.0 8.0 0.00 0.00 0.00 88 1000.9
20220529100804 64 150 3.0 8.0 0.00 0.00 0.00 88 1001.0
20220529100301 64 138 3.0 6.0 0.00 0.00 0.00 88 1000.9
20220529095801 64 155 4.0 6.0 0.00 0.00 0.00 87 1001.3
20220529095258 64 148 3.0 6.0 0.00 0.00 0.00 87 1001.6
20220529094757 64 140 3.0 10.0 0.00 0.00 0.00 87 1001.4
20220529094255 64 169 6.0 13.0 0.00 0.00 0.00 86 1001.4
20220529093754 64 166 5.0 8.0 0.00 0.00 0.00 86 1001.4
20220529093254 64 134 4.0 10.0 0.00 0.00 0.00 86 1001.5
20220529092752 64 180 6.0 8.0 0.00 0.00 0.00 86 1001.7
20220529092250 64 135 5.0 8.0 0.00 0.00 0.00 86 1001.7
20220529091749 65 187 5.0 8.0 0.00 0.00 0.00 86 1001.8
20220529091247 65 157 6.0 6.0 0.00 0.00 0.00 86 1001.8
20220529090746 65 145 6.0 8.0 0.00 0.00 0.00 85 1002.1
20220529090244 65 133 3.0 7.0 0.00 0.00 0.00 85 1002.2
20220529085743 65 156 4.0 11.0 0.00 0.00 0.00 84 1002.3
20220529085241 65 148 3.0 7.0 0.00 0.00 0.00 84 1002.3
20220529084740 65 127 3.0 6.0 0.00 0.00 0.00 84 1002.2
20220529084240 65 155 4.0 7.0 0.00 0.00 0.00 84 1002.2
20220529083739 65 164 3.0 11.0 0.00 0.00 0.00 83 1002.1
20220529083238 65 195 5.0 7.0 0.00 0.00 0.00 83 1002.2
20220529082738 65 133 6.0 9.0 0.00 0.00 0.00 83 1002.1
20220529082237 66 161 4.0 9.0 0.00 0.00 0.00 83 1002.2
20220529081736 66 134 5.0 7.0 0.00 0.00 0.00 82 1001.8
20220529081235 66 142 4.0 13.0 0.00 0.00 0.00 82 1001.8
20220529080733 66 162 7.0 8.0 0.00 0.00 0.00 82 1002.1
20220529080232 66 143 4.0 9.0 0.00 0.00 0.00 82 1002.0
20220529075732 66 165 5.0 10.0 0.00 0.00 0.00 81 1002.2
20220529075230 66 170 6.0 8.0 0.00 0.00 0.00 81 1002.3
20220529074730 66 139 4.0 13.0 0.00 0.00 0.00 81 1002.1
20220529074229 66 151 3.0 10.0 0.00 0.00 0.00 81 1002.3
20220529073727 66 158 6.0 9.0 0.00 0.00 0.00 81 1002.0
20220529073227 66 130 5.0 8.0 0.00 0.00 0.00 81 1002.1
20220529072727 66 154 4.0 7.0 0.00 0.00 0.00 81 1002.1
20220529072226 66 120 3.0 17.0 0.00 0.00 0.00 81 1002.1
20220529071725 66 135 5.0 9.0 0.00 0.00 0.00 80 1002.3
20220529071226 66 139 4.0 7.0 0.00 0.00 0.00 80 1002.2
20220529070725 66 160 6.0 8.0 0.00 0.00 0.00 80 1002.4
20220529070226 66 94 2.0 7.0 0.00 0.00 0.00 80 1002.5
20220529065724 66 167 5.0 7.0 0.00 0.00 0.00 79 1002.5
20220529065222 66 147 3.0 5.0 0.00 0.00 0.00 79 1002.8
20220529064721 67 163 4.0 7.0 0.00 0.00 0.00 78 1002.7
20220529064220 67 173 7.0 8.0 0.00 0.00 0.00 78 1002.8
20220529063718 67 191 5.0 8.0 0.00 0.00 0.00 78 1003.0
20220529063217 67 162 3.0 8.0 0.00 0.00 0.00 78 1002.9
20220529062716 67 175 3.0 5.0 0.00 0.00 0.00 78 1003.1
20220529062214 67 135 4.0 6.0 0.00 0.00 0.00 78 1003.0
20220529061713 67 168 5.0 8.0 0.00 0.00 0.00 77 1003.0
20220529061212 67 147 3.0 6.0 0.00 0.00 0.00 77 1003.0
20220529060712 67 179 7.0 7.0 0.00 0.00 0.00 76 1003.2
20220529060211 67 152 3.0 8.0 0.00 0.00 0.00 76 1003.3
20220529055710 68 178 8.0 9.0 0.00 0.00 0.00 75 1003.4
20220529055209 68 174 4.0 5.0 0.00 0.00 0.00 75 1003.2
20220529054707 68 148 3.0 7.0 0.00 0.00 0.00 75 1003.3
20220529054206 68 133 3.0 6.0 0.00 0.00 0.00 75 1003.3
20220529053703 68 160 4.0 6.0 0.00 0.00 0.00 75 1003.3
20220529053202 68 143 4.0 8.0 0.00 0.00 0.00 74 1003.3
20220529052701 68 160 5.0 8.0 0.00 0.00 0.00 74 1003.3
20220529052201 68 148 4.0 6.0 0.00 0.00 0.00 73 1003.2
20220529051659 68 154 4.0 8.0 0.00 0.00 0.00 73 1003.4
20220529051159 69 150 7.0 8.0 0.00 0.00 0.00 72 1003.6
20220529050657 69 199 5.0 7.0 0.00 0.00 0.00 72 1003.7
20220529050156 69 155 4.0 7.0 0.00 0.00 0.00 72 1003.6
20220529045654 69 152 4.0 8.0 0.00 0.00 0.00 72 1003.6
20220529045152 69 161 4.0 7.0 0.00 0.00 0.00 71 1003.6
20220529044651 69 151 3.0 8.0 0.00 0.00 0.00 71 1003.6
20220529044150 69 180 6.0 8.0 0.00 0.00 0.00 71 1003.8
20220529043648 69 163 5.0 6.0 0.00 0.00 0.00 71 1003.7
20220529043147 69 156 4.0 6.0 0.00 0.00 0.00 70 1003.6
20220529042646 70 124 4.0 9.0 0.00 0.00 0.00 69 1003.6
20220529042144 70 151 4.0 7.0 0.00 0.00 0.00 69 1003.5
20220529041642 70 155 3.0 5.0 0.00 0.00 0.00 69 1003.5
20220529041141 70 170 4.0 5.0 0.00 0.00 0.00 68 1003.5
20220529040639 71 137 5.0 9.0 0.00 0.00 0.00 67 1003.5
20220529040138 71 138 6.0 6.0 0.00 0.00 0.00 67 1003.5
20220529035636 71 160 4.0 9.0 0.00 0.00 0.00 66 1003.4
20220529035134 71 169 3.0 6.0 0.00 0.00 0.00 66 1003.5
20220529034634 72 158 3.0 7.0 0.00 0.00 0.00 65 1003.4
20220529034135 72 164 5.0 9.0 0.00 0.00 0.00 64 1003.2
20220529033633 72 142 4.0 9.0 0.00 0.00 0.00 64 1003.3
20220529033133 73 157 3.0 11.0 0.00 0.00 0.00 64 1003.2
20220529032633 73 145 3.0 7.0 0.00 0.00 0.00 63 1003.0
20220529032131 73 180 4.0 9.0 0.00 0.00 0.00 63 1003.3
20220529031629 73 140 3.0 12.0 0.00 0.00 0.00 63 1003.2
20220529031127 73 109 5.0 7.0 0.00 0.00 0.00 63 1003.3
20220529030626 73 131 4.0 10.0 0.00 0.00 0.00 62 1003.2
20220529030126 73 137 5.0 7.0 0.00 0.00 0.00 62 1003.0
20220529025625 74 158 5.0 9.0 0.00 0.00 0.00 62 1003.0
20220529025124 74 156 2.0 9.0 0.00 0.00 0.00 62 1002.8
20220529024623 74 201 10.0 10.0 0.00 0.00 0.00 61 1002.7
20220529024121 74 155 3.0 12.0 0.00 0.00 0.00 60 1002.8
20220529023619 75 138 7.0 7.0 0.00 0.00 0.00 60 1002.6
20220529023118 75 135 5.0 7.0 0.00 0.00 0.00 60 1002.7
20220529022616 75 147 6.0 9.0 0.00 0.00 0.00 59 1002.7
20220529022115 75 144 3.0 10.0 0.00 0.00 0.00 59 1002.5
20220529021614 75 146 4.0 10.0 0.00 0.00 0.00 59 1002.3
20220529021113 75 154 4.0 5.0 0.00 0.00 0.00 59 1002.5
20220529020611 76 140 4.0 8.0 0.00 0.00 0.00 58 1002.3
20220529020110 76 140 7.0 7.0 0.00 0.00 0.00 58 1002.5
20220529015609 76 158 5.0 7.0 0.00 0.00 0.00 57 1002.3
20220529015108 77 147 3.0 10.0 0.00 0.00 0.00 56 1002.2
20220529014605 77 139 2.0 6.0 0.00 0.00 0.00 57 1002.1
20220529014105 77 145 4.0 7.0 0.00 0.00 0.00 56 1002.1
20220529013603 77 209 5.0 6.0 0.00 0.00 0.00 55 1002.2
20220529013102 78 154 3.0 9.0 0.00 0.00 0.00 55 1002.0
20220529012601 78 144 3.0 5.0 0.00 0.00 0.00 55 1002.2
20220529012100 79 155 6.0 7.0 0.00 0.00 0.00 53 1002.1
20220529011558 79 151 5.0 7.0 0.00 0.00 0.00 53 1002.0
20220529011057 80 140 3.0 7.0 0.00 0.00 0.00 52 1002.1
20220529010556 80 158 4.0 6.0 0.00 0.00 0.00 52 1002.1
20220529010055 80 156 0.0 11.0 0.00 0.00 0.00 50 1001.8
20220529005553 81 156 4.0 7.0 0.00 0.00 0.00 50 1002.0
20220529005051 81 168 4.0 11.0 0.00 0.00 0.00 49 1002.0
20220529004549 81 140 6.0 8.0 0.00 0.00 0.00 49 1001.7
20220529004048 81 161 3.0 9.0 0.00 0.00 0.00 49 1001.8
20220529003548 81 141 5.0 18.0 0.00 0.00 0.00 48 1001.7
20220529003048 81 128 0.0 8.0 0.00 0.00 0.00 49 1001.6
20220529002546 81 151 3.0 6.0 0.00 0.00 0.00 48 1001.6
20220529002045 81 166 5.0 8.0 0.00 0.00 0.00 49 1001.5
20220529001543 81 166 5.0 7.0 0.00 0.00 0.00 48 1001.4
20220529001043 82 163 3.0 11.0 0.00 0.00 0.00 48 1001.4
20220529000542 82 217 4.0 8.0 0.00 0.00 0.00 47 1001.5
20220529000042 82 178 4.0 9.0 0.00 0.00 0.00 47 1001.4
20220528235541 83 164 3.0 9.0 0.00 0.00 0.00 45 1001.4
20220528235040 83 135 2.0 8.0 0.00 0.00 0.00 46 1001.4
20220528234539 83 137 4.0 7.0 0.00 0.00 0.00 45 1001.5
20220528234038 84 156 5.0 6.0 0.00 0.00 0.00 45 1001.4
20220528233536 84 180 5.0 11.0 0.00 0.00 0.00 45 1001.4
20220528233035 84 184 2.0 10.0 0.00 0.00 0.00 45 1001.3
20220528232533 84 154 4.0 10.0 0.00 0.00 0.00 44 1001.5
20220528232032 84 152 2.0 9.0 0.00 0.00 0.00 44 1001.5
20220528231533 84 198 5.0 11.0 0.00 0.00 0.00 44 1001.6
20220528231031 84 148 7.0 11.0 0.00 0.00 0.00 43 1001.3
20220528230531 84 180 3.0 9.0 0.00 0.00 0.00 43 1001.7
20220528230030 84 144 3.0 11.0 0.00 0.00 0.00 44 1001.5
20220528225530 84 166 7.0 10.0 0.00 0.00 0.00 44 1001.5
20220528225029 84 168 6.0 11.0 0.00 0.00 0.00 43 1001.5
20220528224527 84 191 3.0 14.0 0.00 0.00 0.00 42 1001.5
20220528224026 84 145 1.0 12.0 0.00 0.00 0.00 45 1001.5
20220528223526 84 117 2.0 14.0 0.00 0.00 0.00 43 1001.6
20220528223025 84 156 4.0 7.0 0.00 0.00 0.00 42 1001.6
20220528222523 84 128 7.0 10.0 0.00 0.00 0.00 43 1001.7
20220528222022 85 159 4.0 10.0 0.00 0.00 0.00 42 1001.8
20220528221520 85 129 3.0 12.0 0.00 0.00 0.00 42 1002.0
20220528221019 85 194 0.0 7.0 0.00 0.00 0.00 44 1001.8
20220528220518 84 178 4.0 9.0 0.00 0.00 0.00 43 1002.0
20220528220018 85 151 3.0 14.0 0.00 0.00 0.00 42 1002.2
20220528215516 85 127 3.0 12.0 0.00 0.00 0.00 41 1002.3
20220528215015 84 163 2.0 16.0 0.00 0.00 0.00 42 1002.0
20220528214514 85 157 3.0 9.0 0.00 0.00 0.00 42 1002.1
20220528214012 84 172 5.0 10.0 0.00 0.00 0.00 42 1002.3
20220528213511 84 164 12.0 19.0 0.00 0.00 0.00 41 1002.3
20220528213012 84 156 7.0 12.0 0.00 0.00 0.00 42 1002.5
20220528212510 84 160 5.0 14.0 0.00 0.00 0.00 41 1002.5
20220528212008 85 114 2.0 12.0 0.00 0.00 0.00 41 1002.5
20220528211508 84 157 2.0 9.0 0.00 0.00 0.00 44 1002.4
20220528211008 84 170 2.0 11.0 0.00 0.00 0.00 42 1002.5
20220528210509 85 135 3.0 6.0 0.00 0.00 0.00 42 1002.7
20220528210007 84 180 1.0 11.0 0.00 0.00 0.00 41 1002.7
20220528205506 84 174 5.0 10.0 0.00 0.00 0.00 42 1002.8
20220528205005 85 176 6.0 10.0 0.00 0.00 0.00 42 1002.8
20220528204505 84 163 7.0 13.0 0.00 0.00 0.00 42 1003.1
20220528204005 84 156 9.0 13.0 0.00 0.00 0.00 41 1003.3
20220528203504 84 279 1.0 7.0 0.00 0.00 0.00 42 1003.2
20220528203004 84 120 4.0 5.0 0.00 0.00 0.00 41 1003.3
20220528202504 84 209 3.0 8.0 0.00 0.00 0.00 44 1003.4
20220528202002 84 220 5.0 18.0 0.00 0.00 0.00 43 1003.4
20220528201501 84 119 4.0 13.0 0.00 0.00 0.00 42 1003.4
20220528200959 83 281 4.0 14.0 0.00 0.00 0.00 43 1003.6
20220528200459 83 161 4.0 9.0 0.00 0.00 0.00 44 1003.4
20220528200000 82 161 3.0 11.0 0.00 0.00 0.00 44 1003.7
20220528195458 83 164 4.0 14.0 0.00 0.00 0.00 44 1003.5
20220528194957 82 181 5.0 6.0 0.00 0.00 0.00 46 1003.6
20220528194456 82 256 4.0 15.0 0.00 0.00 0.00 46 1003.9
20220528193954 82 164 6.0 11.0 0.00 0.00 0.00 46 1003.9
20220528193452 81 177 11.0 13.0 0.00 0.00 0.00 48 1004.0
20220528192950 80 185 5.0 16.0 0.00 0.00 0.00 49 1003.9
20220528191948 80 176 4.0 11.0 0.00 0.00 0.00 50 1004.1
20220528191447 79 221 5.0 12.0 0.00 0.00 0.00 49 1004.3
20220528190947 79 135 8.0 14.0 0.00 0.00 0.00 50 1004.3
20220528190447 80 168 7.0 13.0 0.00 0.00 0.00 49 1004.4
20220528185945 80 152 4.0 11.0 0.00 0.00 0.00 49 1004.3
20220528185445 79 142 2.0 17.0 0.00 0.00 0.00 51 1004.3
20220528184944 77 276 3.0 12.0 0.00 0.00 0.00 52 1004.4
20220528184443 77 163 5.0 12.0 0.00 0.00 0.00 52 1004.5
20220528183943 77 143 4.0 11.0 0.00 0.00 0.00 51 1004.4
20220528183441 76 149 7.0 12.0 0.00 0.00 0.00 52 1004.5
20220528182941 77 157 4.0 24.0 0.00 0.00 0.00 52 1004.3
20220528182440 77 180 8.0 17.0 0.00 0.00 0.00 51 1004.9
20220528181939 77 135 4.0 13.0 0.00 0.00 0.00 52 1004.6
20220528181437 76 151 9.0 20.0 0.00 0.00 0.00 51 1004.7
20220528180935 77 167 8.0 11.0 0.00 0.00 0.00 50 1004.7
20220528180434 77 177 5.0 19.0 0.00 0.00 0.00 50 1004.9
20220528175933 77 160 5.0 12.0 0.00 0.00 0.00 51 1005.0
20220528175432 77 159 0.0 15.0 0.00 0.00 0.00 51 1005.1
20220528174931 76 151 14.0 19.0 0.00 0.00 0.00 50 1004.9
20220528174429 77 173 15.0 18.0 0.00 0.00 0.00 49 1005.2
20220528173928 76 166 9.0 20.0 0.00 0.00 0.00 49 1005.6
20220528173427 76 147 9.0 24.0 0.00 0.00 0.00 49 1005.5
20220528172927 76 165 7.0 11.0 0.00 0.00 0.00 50 1005.2
20220528172426 76 164 11.0 17.0 0.00 0.00 0.00 49 1005.3
20220528171924 76 173 12.0 15.0 0.00 0.00 0.00 51 1005.1
20220528171423 75 137 4.0 14.0 0.00 0.00 0.00 51 1005.0
20220528170921 75 165 9.0 19.0 0.00 0.00 0.00 53 1005.1
20220528170419 75 169 5.0 17.0 0.00 0.00 0.00 51 1005.0
20220528165919 75 158 9.0 20.0 0.00 0.00 0.00 53 1005.0
20220528165417 75 147 5.0 20.0 0.00 0.00 0.00 52 1004.9
20220528164917 75 171 6.0 17.0 0.00 0.00 0.00 52 1005.0
20220528164416 74 157 14.0 15.0 0.00 0.00 0.00 53 1005.1
20220528163915 74 133 7.0 16.0 0.00 0.00 0.00 53 1004.9
20220528163414 73 150 7.0 12.0 0.00 0.00 0.00 54 1005.2
20220528162913 73 150 3.0 15.0 0.00 0.00 0.00 53 1005.3
20220528162411 73 161 0.0 16.0 0.00 0.00 0.00 56 1005.1
20220528161909 73 139 5.0 19.0 0.00 0.00 0.00 53 1005.0
20220528161408 73 163 8.0 14.0 0.00 0.00 0.00 54 1005.0
20220528160906 73 163 9.0 22.0 0.00 0.00 0.00 54 1005.2
20220528160406 73 144 12.0 20.0 0.00 0.00 0.00 53 1005.4
20220528155904 72 127 6.0 12.0 0.00 0.00 0.00 54 1005.3
20220528155403 72 171 10.0 17.0 0.00 0.00 0.00 53 1005.6
20220528154901 71 155 3.0 16.0 0.00 0.00 0.00 56 1005.6
20220528154400 71 165 12.0 19.0 0.00 0.00 0.00 59 1005.8
20220528153900 71 191 7.0 12.0 0.00 0.00 0.00 60 1005.7
20220528153400 70 176 8.0 18.0 0.00 0.00 0.00 59 1005.9
20220528152859 70 171 11.0 13.0 0.00 0.00 0.00 61 1006.1
20220528152358 68 150 7.0 10.0 0.00 0.00 0.00 61 1006.2
20220528151856 68 180 5.0 16.0 0.00 0.00 0.00 61 1006.4
20220528151355 68 159 5.0 18.0 0.00 0.00 0.00 62 1006.4
20220528150855 67 138 5.0 14.0 0.00 0.00 0.00 60 1006.5
20220528150354 68 146 5.0 15.0 0.00 0.00 0.00 60 1006.8
20220528145853 68 148 5.0 14.0 0.00 0.00 0.00 59 1006.8
20220528145352 68 132 5.0 13.0 0.00 0.00 0.00 59 1007.0
20220528144851 67 150 7.0 9.0 0.00 0.00 0.00 63 1007.1
20220528144352 67 132 4.0 13.0 0.00 0.00 0.00 62 1007.2
20220528143851 68 140 14.0 14.0 0.00 0.00 0.00 62 1007.2
20220528143349 67 180 5.0 10.0 0.00 0.00 0.00 65 1007.2
20220528142848 67 142 8.0 11.0 0.00 0.00 0.00 64 1007.5
20220528142347 67 140 12.0 17.0 0.00 0.00 0.00 64 1007.5
20220528141846 65 159 4.0 15.0 0.00 0.00 0.00 68 1007.6
20220528141344 64 141 11.0 13.0 0.00 0.00 0.00 69 1007.4
20220528140843 64 186 8.0 15.0 0.00 0.00 0.00 71 1007.5
20220528140342 63 164 10.0 13.0 0.00 0.00 0.00 71 1007.4
20220528135840 63 157 6.0 10.0 0.00 0.00 0.00 74 1007.9
20220528135338 63 135 5.0 17.0 0.00 0.00 0.00 73 1007.8
20220528134837 62 146 6.0 12.0 0.00 0.00 0.00 75 1007.8
20220528134335 62 151 6.0 13.0 0.00 0.00 0.00 75 1008.1
20220528133836 62 173 7.0 13.0 0.00 0.00 0.00 74 1008.1
20220528133334 62 149 3.0 11.0 0.00 0.00 0.00 73 1008.3
20220528132833 63 135 7.0 8.0 0.00 0.00 0.00 73 1008.5
20220528132331 63 146 6.0 13.0 0.00 0.00 0.00 73 1008.4
20220528131830 62 141 6.0 12.0 0.00 0.00 0.00 75 1008.3
20220528131329 61 177 7.0 9.0 0.00 0.00 0.00 75 1008.5
20220528130828 60 155 4.0 9.0 0.00 0.00 0.00 76 1008.7
20220528130327 60 134 5.0 8.0 0.00 0.00 0.00 77 1008.7
20220528125827 60 163 5.0 7.0 0.00 0.00 0.00 77 1008.8
20220528125326 60 129 3.0 8.0 0.00 0.00 0.00 77 1008.9
20220528124825 60 156 2.0 7.0 0.00 0.00 0.00 77 1008.8
20220528124324 60 158 4.0 5.0 0.00 0.00 0.00 77 1008.9
20220528123822 60 132 2.0 6.0 0.00 0.00 0.00 78 1008.8